User: anonymous   Login
Location: Unspecified
(0.0000°N, 0.0000°E)
Time: 00:14:05
(UTC+00:00)
Language:

ERS-1 - Orbit

View from above orbital plane
View from above orbital plane
View from above satellite
View from above satellite

Ground track
Ground track

The orbit data is extracted from the following two-line orbital elements,

1 21574U 91050A   18112.49661560 +.00000084 +00000-0 +42031-4 0  9990
2 21574 098.4994 060.3847 0034108 110.8674 249.6170 14.37641581402044
Epoch (UTC): 22 April 2018 11:55:07
Eccentricity: 0.0034108
inclination: 98.4994°
perigee height: 742 km
apogee height: 790 km
right ascension of ascending node: 60.3847°
argument of perigee: 110.8674°
revolutions per day: 14.37641581
mean anomaly at epoch: 249.6170°
orbit number at epoch: 40204

The dashed part of the orbit path shows where the satellite is in the earth's shadow,  

DLR